STARLINK-2300 (48027 NORAD) Tracking and Keplerian Element Data

This shows tracking and keplerian element data for the satellite.

Feedback or suggestion? Click here.




ElementValue
Catalog48027
NameSTARLINK-2300
Epoch Orbit197
Epoch Day170.58334491
Epoch Year2021
RAAN137.6372
Inclination53.0532
Eccentricity0.000423
Argument of Perigee6.7692
Mean Anonmoly238.9307
Mean Motion15.55818883
Decay Rate0.00484408
L11 48027U 21024BC 21170.58334491 .00484408 00000-0 64826-2 0 9994
L22 48027 53.0532 137.6372 0004230 6.7692 238.9307 15.55818883 1970

Live tracking and technical data element details for STARLINK-2300 (NORAD 48027). STARLINK-2300 can be tracked NOW for your location showing map with azimuth and elevation plus other details from your city location.

Track the satellite on the map from your city or location and see movement details for azimuth, elevation, latitude, longitude, range, height, and movement on the map or in text.







IsCatalogInMostPopularTable: catalog: 48027, numindb: 40
Update: records affected: 1



GetName: 48027 STARLINK-2300

Hit Count: updated at: Mon, 21 Jun 2021 05:01:47 GMT